"startDT [UTC]","vpos","CH4 [ppm]","stdev(CH4) [ppm]","CO2 [ppm]","stdev(CO2) [ppm]","H2O_reported [%]","stdev(H2O_reported)","CavityPressure [torr]","CavityTemp [C]","OutletValve","CH4_dry [ppm]","CO2_dry [ppm]","DasTemp [C]","EtalonTemp [C]","WarmBoxTemp [C]","MPVPosition","T_ECpre [C]","T_EC1 [C]","T_EC2 [C]","p_inlet [hPa]","p_in [hPa]","p_out [hPa]","T_inlet [C]","RH_inlet [%]","dwpt_inlet [C]","T_vent [C]","RH_vent [%]","dwpt_vent [C]","flow_vent [l min-1]","flow_inlet [l min-1]","dwpt_sample [C]","T_room [C]"
2015-06-24 00:00:00,0.0,1.88612,0.00040,397.527,0.054,0.7265,0.0024,140.001,45.000,34235.51366,1.89993,401.081,33.444,45.068,45.000,0.00,0.10,-272.72,-272.79,-7,989,-5,23.8,18.8,-1.3,23.6,19.3,-1.1,5.73,1.90,-0.2,27.9
2015-06-24 00:01:00,0.0,1.88571,0.00044,397.351,0.079,0.7410,0.0087,140.001,45.000,34236.52077,1.89975,400.970,33.453,45.068,45.000,0.00,0.10,-272.72,-272.78,-7,988,-5,23.9,19.3,-1.0,23.6,19.6,-0.9,5.73,1.91,-0.2,27.9
2015-06-24 00:02:00,0.0,1.88558,0.00039,397.492,0.053,0.7505,0.0063,139.998,45.000,34235.44160,1.89985,401.165,33.461,45.068,45.000,0.00,0.10,-272.71,-272.77,-7,988,-5,23.8,19.4,-0.9,23.6,20.0,-0.7,5.73,1.93,-0.2,27.8
2015-06-24 00:03:00,0.0,1.88604,0.00051,397.515,0.058,0.7439,0.0020,140.001,45.000,34234.32490,1.90016,401.159,33.483,45.068,45.000,0.00,0.10,-272.72,-272.78,-7,989,-5,23.8,19.3,-1.0,23.6,19.8,-0.8,5.73,1.94,-0.2,27.8
2015-06-24 00:04:00,0.0,1.88557,0.00042,397.396,0.084,0.7507,0.0023,139.997,45.000,34235.39374,1.89983,401.065,33.500,45.068,45.000,0.00,0.10,-272.72,-272.78,-7,988,-5,23.8,19.5,-0.8,23.6,20.0,-0.7,5.73,1.95,-0.2,27.8
2015-06-24 00:05:00,0.0,1.88581,0.00038,397.526,0.054,0.7423,0.0052,140.001,45.000,34236.12952,1.89992,401.165,33.498,45.068,45.000,0.00,0.10,-272.72,-272.78,-7,988,-5,23.8,19.2,-1.0,23.6,19.9,-0.8,5.73,1.94,-0.2,27.8
2015-06-24 00:06:00,0.0,1.88551,0.00052,397.345,0.066,0.7494,0.0086,139.998,45.000,34233.76443,1.89978,401.009,33.500,45.067,45.000,0.00,0.10,-272.72,-272.78,-7,988,-5,23.8,19.5,-0.9,23.6,19.9,-0.8,5.73,1.93,-0.2,27.8
2015-06-24 00:07:00,0.0,1.88524,0.00039,397.380,0.053,0.7666,0.0067,139.997,45.000,34235.96395,1.89981,401.129,33.498,45.068,45.000,0.00,0.10,-272.72,-272.79,-7,988,-5,23.8,19.9,-0.6,23.6,20.4,-0.4,5.73,1.92,-0.2,27.8
2015-06-24 00:08:00,0.0,1.88567,0.00029,397.525,0.081,0.7481,0.0057,139.997,45.000,34236.14824,1.89986,401.186,33.492,45.068,45.000,0.00,0.10,-272.71,-272.78,-7,989,-5,23.8,19.3,-1.0,23.6,20.0,-0.7,5.73,1.90,-0.2,27.9
2015-06-24 00:09:00,0.0,1.88618,0.00038,397.539,0.063,0.7321,0.0058,140.000,45.000,34235.95640,1.90006,401.121,33.460,45.068,45.000,0.00,0.10,-272.71,-272.78,-7,988,-5,23.8,19.0,-1.2,23.6,19.5,-1.0,5.73,1.89,-0.2,27.8
2015-06-24 00:10:00,0.0,1.88599,0.00050,397.564,0.048,0.7431,0.0059,140.005,45.000,34235.93105,1.90013,401.201,33.446,45.068,45.000,0.00,0.10,-272.72,-272.78,-7,989,-5,23.8,19.3,-1.0,23.6,19.8,-0.9,5.73,1.88,-0.2,27.9
2015-06-24 00:11:00,0.0,1.88613,0.00047,397.480,0.108,0.7353,0.0046,139.997,45.000,34235.63121,1.90009,401.085,33.438,45.068,45.000,0.00,0.10,-272.72,-272.78,-7,988,-5,23.8,19.1,-1.2,23.6,19.6,-1.0,5.73,1.89,-0.2,27.9
2015-06-24 00:12:00,0.0,1.88529,0.00038,397.447,0.072,0.7570,0.0060,140.000,45.000,34236.33910,1.89971,401.145,33.437,45.068,45.000,0.00,0.10,-272.72,-272.78,-7,988,-5,23.8,19.6,-0.8,23.6,20.0,-0.7,5.73,1.90,-0.2,27.8
2015-06-24 00:13:00,0.0,1.88583,0.00036,397.586,0.034,0.7412,0.0057,139.997,45.000,34236.09835,1.89988,401.214,33.430,45.068,45.000,0.00,0.10,-272.72,-272.78,-7,988,-5,23.8,19.2,-1.1,23.6,19.8,-0.8,5.73,1.93,-0.2,27.8
2015-06-24 00:14:00,0.0,1.88609,0.00041,397.499,0.044,0.7357,0.0045,139.998,45.000,34234.74643,1.90001,401.100,33.429,45.068,45.000,0.00,0.10,-272.72,-272.78,-7,988,-5,23.8,19.1,-1.1,23.6,19.6,-1.0,5.73,1.93,-0.2,27.8
2015-06-24 00:15:00,0.0,1.88589,0.00036,397.476,0.100,0.7444,0.0028,140.003,45.000,34234.80274,1.90006,401.116,33.437,45.068,45.000,0.00,0.10,-272.72,-272.77,-7,989,-5,23.8,19.3,-0.9,23.6,19.8,-0.9,5.73,1.94,-0.2,27.8
2015-06-24 00:16:00,0.0,1.88618,0.00034,397.566,0.056,0.7398,0.0062,140.003,45.000,34235.68478,1.90025,401.187,33.437,45.068,45.000,0.00,0.10,-272.71,-272.78,-7,989,-5,23.8,19.2,-1.1,23.6,19.8,-0.8,5.73,1.95,-0.2,27.8
2015-06-24 00:17:00,0.0,1.88609,0.00030,397.667,0.020,0.7254,0.0051,140.000,45.000,34234.72061,1.89986,401.218,33.438,45.068,45.000,0.00,0.10,-272.72,-272.78,-7,989,-5,23.8,18.8,-1.4,23.6,19.4,-1.1,5.73,1.94,-0.2,27.8
2015-06-24 00:18:00,0.0,1.88614,0.00051,397.614,0.086,0.7232,0.0028,140.000,45.000,34234.56125,1.89987,401.151,33.442,45.068,45.000,0.00,0.10,-272.72,-272.78,-7,989,-5,23.8,18.8,-1.4,23.6,19.2,-1.2,5.73,1.93,-0.2,27.9
2015-06-24 00:19:00,0.0,1.88591,0.00045,397.510,0.138,0.7383,0.0057,140.000,45.000,34232.21552,1.89994,401.125,33.439,45.068,45.000,0.00,0.10,-272.71,-272.78,-7,988,-5,23.8,19.2,-1.1,23.6,19.6,-1.0,5.73,1.91,-0.2,27.8
2015-06-24 00:20:00,0.0,1.88577,0.00063,397.422,0.065,0.7558,0.0049,140.003,45.000,34232.94701,1.90013,401.121,33.438,45.068,45.000,0.00,0.10,-272.72,-272.79,-7,989,-5,23.8,19.7,-0.7,23.6,20.1,-0.6,5.73,1.89,-0.2,27.9
2015-06-24 00:21:00,0.0,1.88536,0.00047,397.250,0.068,0.7738,0.0133,140.003,45.000,34234.82416,1.90006,401.030,33.438,45.068,45.000,0.00,0.10,-272.72,-272.79,-7,988,-5,23.8,20.2,-0.4,23.6,20.5,-0.3,5.73,1.88,-0.2,27.9
2015-06-24 00:22:00,0.0,1.88529,0.00035,397.415,0.078,0.7639,0.0105,140.001,45.000,34237.15285,1.89984,401.156,33.438,45.068,45.000,0.00,0.10,-272.71,-272.78,-7,988,-5,23.8,19.8,-0.7,23.6,20.5,-0.3,5.73,1.89,-0.2,27.9
2015-06-24 00:23:00,0.0,1.88590,0.00054,397.609,0.046,0.7382,0.0072,139.999,45.000,34235.42813,1.89987,401.224,33.437,45.068,45.000,0.00,0.10,-272.72,-272.78,-7,989,-5,23.8,19.1,-1.1,23.6,19.8,-0.8,5.73,1.89,-0.2,27.8
2015-06-24 00:24:00,0.0,1.88606,0.00033,397.512,0.140,0.7245,0.0062,139.998,45.000,34232.66315,1.89983,401.057,33.428,45.068,45.000,0.00,0.10,-272.73,-272.78,-7,988,-5,23.8,18.8,-1.4,23.6,19.3,-1.2,5.73,1.91,-0.2,27.8
2015-06-24 00:25:00,0.0,1.88575,0.00041,397.379,0.078,0.7526,0.0042,140.001,45.000,34233.74093,1.90007,401.058,33.416,45.068,45.000,0.00,0.10,-272.72,-272.78,-7,988,-5,23.8,19.6,-0.8,23.6,19.9,-0.7,5.73,1.92,-0.2,27.8
2015-06-24 00:26:00,0.0,1.88587,0.00041,397.465,0.084,0.7518,0.0075,139.999,45.000,34232.85701,1.90013,401.146,33.424,45.068,45.000,0.00,0.10,-272.71,-272.78,-7,988,-5,23.8,19.5,-0.9,23.6,20.1,-0.6,5.73,1.94,-0.2,27.8
2015-06-24 00:27:00,0.0,1.88639,0.00059,397.587,0.057,0.7331,0.0041,139.997,45.000,34233.13944,1.90034,401.175,33.434,45.068,45.000,0.00,0.10,-272.72,-272.79,-7,988,-5,23.8,19.0,-1.2,23.6,19.6,-1.0,5.73,1.94,-0.2,27.8
2015-06-24 00:28:00,0.0,1.88618,0.00040,397.573,0.062,0.7295,0.0018,139.998,45.000,34233.36987,1.90003,401.141,33.403,45.068,45.000,0.00,0.10,-272.72,-272.78,-7,989,-5,23.8,18.9,-1.3,23.6,19.4,-1.1,5.73,1.95,-0.2,27.8
2015-06-24 00:29:00,0.0,1.88593,0.00046,397.530,0.042,0.7323,0.0019,140.002,45.000,34233.21741,1.89983,401.115,33.409,45.068,45.000,0.00,0.10,-272.71,-272.77,-7,988,-5,23.8,18.9,-1.2,23.6,19.5,-1.0,5.73,1.93,-0.2,27.8
2015-06-24 00:30:00,0.0,1.88622,0.00046,397.554,0.058,0.7296,0.0028,140.003,45.000,34234.90545,1.90005,401.122,33.389,45.068,45.000,0.00,0.10,-272.72,-272.78,-7,989,-5,23.8,18.9,-1.3,23.6,19.4,-1.1,5.73,1.92,-0.2,27.8
2015-06-24 00:31:00,0.0,1.88629,0.00032,397.450,0.078,0.7358,0.0065,140.001,45.000,34233.75709,1.90027,401.047,33.430,45.068,45.000,0.00,0.10,-272.72,-272.78,-7,989,-5,23.8,19.1,-1.1,23.6,19.5,-1.0,5.73,1.90,-0.2,27.8
2015-06-24 00:32:00,0.0,1.88595,0.00049,397.469,0.054,0.7481,0.0025,139.993,45.000,34229.72779,1.90019,401.131,33.438,45.068,45.000,0.00,0.10,-272.71,-272.78,-7,989,-5,23.8,19.4,-0.9,23.6,19.9,-0.7,5.73,1.88,-0.2,27.8
2015-06-24 00:33:00,0.0,1.88600,0.00054,397.552,0.102,0.7399,0.0047,140.002,45.000,34232.83546,1.90002,401.170,33.434,45.068,45.000,0.00,0.10,-272.72,-272.78,-7,988,-5,23.8,19.2,-1.1,23.6,19.8,-0.8,5.73,1.89,-0.2,27.8
2015-06-24 00:34:00,0.0,1.88659,0.00042,397.593,0.051,0.7270,0.0035,140.001,45.000,34232.11311,1.90038,401.153,33.436,45.068,45.000,0.00,0.10,-272.72,-272.78,-7,988,-5,23.8,18.9,-1.3,23.6,19.4,-1.1,5.73,1.89,-0.2,27.9
2015-06-24 00:35:00,0.0,1.88607,0.00038,397.460,0.037,0.7390,0.0059,140.003,45.000,34233.50940,1.90012,401.075,33.435,45.068,45.000,0.00,0.10,-272.72,-272.78,-7,989,-5,23.8,19.2,-1.1,23.6,19.6,-1.0,5.73,1.91,-0.2,27.8
2015-06-24 00:36:00,0.0,1.88609,0.00043,397.285,0.080,0.7530,0.0088,140.000,45.000,34230.00826,1.90039,400.970,33.434,45.068,45.000,0.00,0.10,-272.72,-272.78,-7,989,-5,23.8,19.6,-0.8,23.6,20.0,-0.7,5.73,1.92,-0.2,27.8
2015-06-24 00:37:00,0.0,1.88555,0.00055,397.170,0.085,0.7854,0.0080,140.004,45.000,34232.80260,1.90053,401.009,33.431,45.068,45.000,0.00,0.10,-272.72,-272.78,-7,988,-5,23.8,20.5,-0.2,23.6,20.8,-0.1,5.73,1.93,-0.2,27.8
2015-06-24 00:38:00,0.0,1.88579,0.00037,397.384,0.084,0.7642,0.0131,140.002,45.000,34232.31367,1.90031,401.128,33.436,45.068,45.000,0.00,0.10,-272.72,-272.78,-7,988,-5,23.8,19.8,-0.7,23.6,20.6,-0.3,5.73,1.94,-0.2,27.8
2015-06-24 00:39:00,0.0,1.88612,0.00040,397.508,0.050,0.7393,0.0023,140.000,45.000,34229.91110,1.90016,401.126,33.436,45.068,45.000,0.00,0.10,-272.72,-272.78,-7,989,-5,23.8,19.2,-1.1,23.6,19.8,-0.8,5.73,1.95,-0.2,27.8
2015-06-24 00:40:00,0.0,1.88609,0.00031,397.440,0.069,0.7386,0.0027,140.001,45.000,34230.34177,1.90012,401.056,33.438,45.068,45.000,0.00,0.10,-272.72,-272.78,-7,989,-5,23.8,19.2,-1.1,23.6,19.7,-0.9,5.73,1.94,-0.2,27.8
2015-06-24 00:41:00,0.0,1.88553,0.00042,397.339,0.062,0.7573,0.0059,140.000,45.000,34230.51756,1.89992,401.044,33.442,45.068,45.000,0.00,0.10,-272.72,-272.78,-7,988,-5,23.8,19.7,-0.7,23.6,20.1,-0.6,5.73,1.92,-0.2,27.8
2015-06-24 00:42:00,0.0,1.88577,0.00065,397.331,0.072,0.7630,0.0064,139.996,45.000,34228.45949,1.90027,401.066,33.438,45.068,45.000,0.00,0.10,-272.72,-272.77,-7,988,-5,23.8,19.9,-0.6,23.6,20.3,-0.5,5.73,1.91,-0.2,27.9
2015-06-24 00:43:00,0.0,1.88531,0.00023,397.256,0.049,0.7763,0.0024,140.002,45.000,34231.91475,1.90008,401.052,33.453,45.068,45.000,0.00,0.10,-272.72,-272.78,-7,988,-5,23.8,20.2,-0.4,23.6,20.7,-0.2,5.73,1.89,-0.2,27.8
2015-06-24 00:44:00,0.0,1.88538,0.00043,397.280,0.074,0.7765,0.0045,140.000,45.000,34228.63586,1.90012,401.084,33.441,45.068,45.000,0.00,0.10,-272.72,-272.78,-7,989,-5,23.8,20.2,-0.4,23.6,20.7,-0.2,5.73,1.89,-0.2,27.8
2015-06-24 00:45:00,0.0,1.88518,0.00040,397.268,0.056,0.7786,0.0042,140.001,45.000,34230.45351,1.90004,401.078,33.457,45.068,45.000,0.00,0.10,-272.72,-272.78,-7,988,-5,23.8,20.3,-0.3,23.6,20.8,-0.2,5.73,1.88,-0.2,27.8
2015-06-24 00:46:00,0.0,1.88533,0.00046,397.326,0.044,0.7659,0.0080,139.995,45.000,34230.86917,1.89985,401.077,33.460,45.068,45.000,0.00,0.10,-272.71,-272.78,-7,988,-5,23.8,19.8,-0.6,23.6,20.5,-0.3,5.73,1.90,-0.2,27.8
2015-06-24 00:47:00,0.0,1.88525,0.00042,397.356,0.046,0.7624,0.0024,140.001,45.000,34233.22531,1.89976,401.092,33.452,45.068,45.000,0.00,0.10,-272.72,-272.78,-7,989,-5,23.8,19.8,-0.6,23.6,20.3,-0.5,5.73,1.90,-0.2,27.9
2015-06-24 00:48:00,0.0,1.88514,0.00045,397.334,0.057,0.7575,0.0050,139.998,45.000,34233.27307,1.89953,401.041,33.450,45.068,45.000,0.00,0.10,-272.72,-272.78,-7,988,-5,23.8,19.7,-0.7,23.6,20.3,-0.5,5.73,1.93,-0.2,27.8
2015-06-24 00:49:00,0.0,1.88553,0.00046,397.367,0.060,0.7565,0.0040,140.000,45.000,34231.31679,1.89988,401.066,33.449,45.068,45.000,0.00,0.10,-272.72,-272.78,-7,988,-5,23.8,19.6,-0.8,23.6,20.2,-0.5,5.73,1.94,-0.2,27.8
2015-06-24 00:50:00,0.0,1.88538,0.00026,397.416,0.040,0.7497,0.0022,140.000,45.000,34231.63184,1.89964,401.087,33.445,45.068,45.000,0.00,0.10,-272.72,-272.78,-7,989,-5,23.8,19.5,-0.9,23.6,20.0,-0.7,5.73,1.94,-0.2,27.8
2015-06-24 00:51:00,0.0,1.88555,0.00049,397.461,0.051,0.7459,0.0032,139.997,45.000,34229.93145,1.89974,401.109,33.441,45.068,45.000,0.00,0.10,-272.73,-272.78,-7,989,-5,23.8,19.3,-1.0,23.6,19.9,-0.7,5.73,1.94,-0.2,27.8
2015-06-24 00:52:00,0.0,1.88592,0.00060,397.501,0.042,0.7350,0.0037,139.997,45.000,34228.21696,1.89989,401.098,33.477,45.068,45.000,0.00,0.10,-272.71,-272.78,-7,989,-5,23.8,19.0,-1.2,23.6,19.7,-0.9,5.73,1.93,-0.2,27.9
2015-06-24 00:53:00,0.0,1.88532,0.00054,397.430,0.059,0.7475,0.0084,140.000,45.000,34232.23282,1.89949,401.085,33.498,45.068,45.000,0.00,0.10,-272.72,-272.78,-7,988,-5,23.8,19.4,-0.9,23.6,19.9,-0.7,5.73,1.92,-0.2,27.9
2015-06-24 00:54:00,0.0,1.88571,0.00027,397.587,0.038,0.7300,0.0039,140.004,45.000,34234.21667,1.89958,401.159,33.500,45.068,45.000,0.00,0.10,-272.73,-272.78,-7,988,-5,23.8,18.9,-1.3,23.6,19.6,-1.0,5.73,1.90,-0.2,27.9
2015-06-24 00:55:00,0.0,1.88579,0.00032,397.540,0.044,0.7207,0.0026,139.998,45.000,34235.42242,1.89948,401.067,33.503,45.068,45.000,0.00,0.10,-272.72,-272.78,-7,989,-5,23.8,18.7,-1.4,23.6,19.2,-1.2,5.73,1.89,-0.2,27.9
2015-06-24 00:56:00,0.0,1.88564,0.00056,397.548,0.027,0.7245,0.0041,140.001,45.000,34236.53622,1.89939,401.089,33.550,45.068,45.000,0.00,0.10,-272.71,-272.77,-7,988,-5,23.8,18.8,-1.4,23.6,19.3,-1.2,5.73,1.89,-0.2,27.9
2015-06-24 00:57:00,0.0,1.88564,0.00037,397.556,0.043,0.7159,0.0035,140.003,45.000,34236.68083,1.89921,401.059,33.558,45.067,44.999,0.00,0.10,-272.72,-272.78,-7,989,-5,23.8,18.5,-1.6,23.6,19.1,-1.3,5.73,1.89,-0.2,27.9
2015-06-24 00:58:00,0.0,1.88579,0.00044,397.512,0.075,0.7189,0.0024,140.000,45.000,34237.56588,1.89943,401.030,33.561,45.067,45.000,0.00,0.10,-272.72,-272.79,-7,989,-5,23.8,18.6,-1.5,23.6,19.1,-1.3,5.73,1.90,-0.2,27.9
2015-06-24 00:59:00,0.0,1.88538,0.00040,397.472,0.037,0.7294,0.0037,139.999,45.000,34236.67351,1.89924,401.037,33.551,45.067,44.999,0.00,0.10,-272.71,-272.78,-7,989,-5,23.8,18.9,-1.2,23.6,19.4,-1.1,5.73,1.92,-0.2,27.9
2015-06-24 01:00:00,0.0,1.88548,0.00026,397.305,0.053,0.7339,0.0063,139.999,45.000,34236.64814,1.89941,400.894,33.520,45.067,45.000,0.00,0.10,-272.72,-272.78,-7,989,-5,23.8,19.1,-1.2,23.6,19.5,-1.0,5.73,1.93,-0.2,27.9
2015-06-24 01:01:00,0.0,1.88520,0.00050,397.229,0.050,0.7512,0.0029,140.001,45.000,34236.24284,1.89949,400.903,33.534,45.068,45.000,0.00,0.10,-272.72,-272.79,-7,988,-5,23.8,19.5,-0.8,23.6,20.0,-0.7,5.73,1.94,-0.2,27.9
2015-06-24 01:02:00,0.0,1.88488,0.00031,397.308,0.041,0.7449,0.0067,139.996,45.000,34235.09935,1.89900,400.951,33.521,45.068,45.000,0.00,0.10,-272.72,-272.78,-7,989,-5,23.8,19.3,-1.0,23.6,19.9,-0.7,5.73,1.94,-0.2,27.9
2015-06-24 01:03:00,0.0,1.88530,0.00036,397.280,0.059,0.7382,0.0057,140.001,45.000,34235.39984,1.89933,400.889,33.500,45.068,45.000,0.00,0.10,-272.72,-272.78,-7,989,-5,23.8,19.2,-1.1,23.6,19.6,-0.9,5.73,1.94,-0.2,27.9
2015-06-24 01:04:00,0.0,1.88478,0.00035,397.227,0.054,0.7518,0.0045,140.004,45.000,34237.16950,1.89906,400.910,33.499,45.068,45.000,0.00,0.10,-272.73,-272.79,-7,989,-5,23.8,19.5,-0.8,23.6,20.0,-0.7,5.73,1.93,-0.2,27.9
2015-06-24 01:05:00,0.0,1.88478,0.00038,397.196,0.069,0.7549,0.0053,140.001,45.000,34236.26984,1.89911,400.882,33.491,45.068,45.000,0.00,0.10,-272.72,-272.78,-7,989,-5,23.8,19.6,-0.8,23.6,20.1,-0.6,5.73,1.92,-0.2,28.0
2015-06-24 01:06:00,0.0,1.88477,0.00044,397.373,0.064,0.7363,0.0084,140.000,45.000,34236.12836,1.89876,400.977,33.447,45.068,45.000,0.00,0.10,-272.71,-272.77,-7,988,-5,23.8,19.1,-1.2,23.6,19.8,-0.8,5.73,1.90,-0.2,27.9
2015-06-24 01:07:00,0.0,1.88527,0.00049,397.423,0.029,0.7202,0.0025,140.000,45.000,34235.06909,1.89898,400.944,33.438,45.068,45.000,0.00,0.10,-272.72,-272.78,-7,989,-5,23.8,18.6,-1.4,23.6,19.2,-1.2,5.73,1.89,-0.2,27.9
2015-06-24 01:08:00,0.0,1.88522,0.00038,397.364,0.072,0.7267,0.0049,139.999,45.000,34234.90597,1.89898,400.919,33.439,45.068,45.001,0.00,0.10,-272.72,-272.78,-7,988,-5,23.8,18.8,-1.3,23.6,19.3,-1.2,5.73,1.89,-0.2,27.9
2015-06-24 01:09:00,0.0,1.88496,0.00054,397.191,0.064,0.7487,0.0072,140.005,45.000,34235.75992,1.89916,400.852,33.442,45.068,45.000,0.00,0.10,-272.72,-272.77,-7,988,-5,23.8,19.5,-0.9,23.6,19.9,-0.8,5.73,1.90,-0.2,27.9
2015-06-24 01:10:00,0.0,1.88463,0.00056,397.170,0.053,0.7579,0.0037,140.003,45.000,34237.30884,1.89902,400.874,33.439,45.068,45.000,0.00,0.10,-272.72,-272.77,-7,989,-5,23.8,19.7,-0.7,23.6,20.2,-0.5,5.73,1.90,-0.2,27.9
2015-06-24 01:11:00,0.0,1.88458,0.00035,397.260,0.048,0.7459,0.0069,139.998,45.000,34235.61853,1.89878,400.912,33.438,45.068,45.000,0.00,0.10,-272.72,-272.79,-7,989,-5,23.8,19.3,-1.0,23.6,20.0,-0.7,5.73,1.92,-0.2,27.8
2015-06-24 01:12:00,0.0,1.88502,0.00043,397.231,0.045,0.7464,0.0033,140.003,45.000,34237.10024,1.89920,400.876,33.438,45.068,45.000,0.00,0.10,-272.72,-272.79,-7,989,-5,23.9,19.4,-0.9,23.6,19.9,-0.8,5.73,1.93,-0.2,27.9
2015-06-24 01:13:00,0.0,1.88454,0.00042,397.191,0.064,0.7439,0.0035,140.004,45.000,34237.43140,1.89866,400.832,33.438,45.068,45.000,0.00,0.10,-272.71,-272.78,-7,988,-5,23.8,19.3,-1.0,23.6,19.8,-0.8,5.73,1.95,-0.2,27.9
2015-06-24 01:14:00,0.0,1.88459,0.00061,397.207,0.069,0.7429,0.0029,140.003,45.000,34236.63074,1.89872,400.837,33.438,45.068,45.000,0.00,0.10,-272.73,-272.78,-7,989,-5,23.8,19.3,-1.0,23.6,19.8,-0.8,5.73,1.95,-0.2,27.9
2015-06-24 01:15:00,0.0,1.88456,0.00035,397.184,0.027,0.7527,0.0059,140.001,45.000,34237.53089,1.89880,400.865,33.452,45.068,45.000,0.00,0.10,-272.72,-272.78,-7,989,-5,23.8,19.5,-0.8,23.6,20.0,-0.7,5.73,1.94,-0.2,27.9
2015-06-24 01:16:00,0.0,1.88450,0.00031,397.126,0.063,0.7602,0.0029,139.999,45.000,34237.34483,1.89896,400.846,33.472,45.068,45.000,0.00,0.10,-272.72,-272.78,-7,988,-5,23.8,19.7,-0.7,23.6,20.3,-0.5,5.73,1.92,-0.2,27.9
2015-06-24 01:17:00,0.0,1.88479,0.00060,397.109,0.076,0.7602,0.0023,139.995,45.000,34233.59044,1.89924,400.828,33.486,45.068,45.000,0.00,0.10,-272.72,-272.79,-7,989,-5,23.8,19.7,-0.7,23.6,20.2,-0.5,5.73,1.90,-0.2,27.9
2015-06-24 01:18:00,0.0,1.88440,0.00044,397.285,0.081,0.7480,0.0141,140.000,45.000,34234.39603,1.89861,400.941,33.485,45.068,45.000,0.00,0.10,-272.72,-272.79,-7,989,-5,23.8,19.3,-1.0,23.6,20.0,-0.7,5.73,1.90,-0.2,27.9
2015-06-24 01:19:00,0.0,1.88463,0.00027,397.376,0.035,0.7263,0.0023,140.006,45.000,34237.68038,1.89842,400.927,33.489,45.067,45.000,0.00,0.10,-272.72,-272.78,-7,989,-5,23.8,18.8,-1.3,23.6,19.3,-1.1,5.73,1.89,-0.2,27.8
2015-06-24 01:20:00,0.0,1.88499,0.00037,397.412,0.030,0.7209,0.0022,140.003,45.000,34236.03645,1.89865,400.938,33.494,45.067,44.999,0.00,0.10,-272.72,-272.78,-7,989,-5,23.8,18.7,-1.4,23.6,19.2,-1.2,5.73,1.89,-0.2,27.9
2015-06-24 01:21:00,0.0,1.88486,0.00051,397.451,0.045,0.7188,0.0041,140.003,45.000,34237.96401,1.89849,400.964,33.496,45.068,45.000,0.00,0.10,-272.73,-272.78,-7,988,-5,23.8,18.6,-1.5,23.6,19.1,-1.3,5.73,1.89,-0.2,27.9
2015-06-24 01:22:00,0.0,1.88523,0.00038,397.381,0.049,0.7176,0.0069,139.997,45.000,34234.70301,1.89884,400.888,33.457,45.068,45.000,0.00,0.10,-272.72,-272.78,-7,989,-5,23.8,18.6,-1.5,23.6,19.0,-1.3,5.73,1.91,-0.2,27.9
2015-06-24 01:23:00,0.0,1.88509,0.00031,397.416,0.033,0.7197,0.0028,140.002,45.000,34236.18677,1.89873,400.935,33.441,45.068,45.000,0.00,0.10,-272.72,-272.78,-7,988,-5,23.8,18.6,-1.5,23.6,19.2,-1.3,5.73,1.93,-0.2,27.9
2015-06-24 01:24:00,0.0,1.88480,0.00052,397.356,0.048,0.7199,0.0026,139.995,45.000,34235.29699,1.89845,400.876,33.438,45.068,45.000,0.00,0.10,-272.72,-272.79,-7,989,-5,23.8,18.7,-1.4,23.6,19.1,-1.3,5.73,1.94,-0.2,27.9
2015-06-24 01:25:00,0.0,1.88440,0.00035,397.326,0.051,0.7325,0.0027,140.001,45.000,34238.53876,1.89830,400.907,33.434,45.068,45.000,0.00,0.10,-272.72,-272.78,-7,989,-5,23.9,19.0,-1.2,23.6,19.4,-1.1,5.73,1.95,-0.2,28.0
2015-06-24 01:26:00,0.0,1.88435,0.00042,397.256,0.100,0.7328,0.0025,139.998,45.000,34240.04300,1.89829,400.841,33.432,45.068,45.000,0.00,0.10,-272.71,-272.78,-8,989,-5,23.9,19.0,-1.1,23.6,19.5,-1.0,5.73,1.94,-0.2,27.9
2015-06-24 01:27:00,0.0,1.88413,0.00040,397.196,0.051,0.7499,0.0069,139.997,45.000,34239.06134,1.89837,400.859,33.427,45.068,45.000,0.00,0.32,-270.77,-271.16,-7,989,-5,23.8,19.5,-0.9,23.6,19.9,-0.7,5.43,2.06,-3.7,27.9
2015-06-24 01:28:00,0.0,1.88445,0.00041,397.175,0.035,0.7491,0.0019,139.997,45.000,34235.49869,1.89866,400.840,33.431,45.068,45.000,0.00,0.10,-272.72,-272.78,-7,988,-5,23.8,19.5,-0.9,23.6,20.0,-0.7,5.73,1.92,-0.2,27.9
2015-06-24 01:29:00,0.0,1.88432,0.00060,397.158,0.032,0.7589,0.0030,139.999,45.000,34237.78593,1.89872,400.867,33.436,45.068,45.000,0.00,0.10,-272.72,-272.78,-7,989,-5,23.8,19.7,-0.7,23.6,20.2,-0.6,5.73,1.90,-0.2,27.9
2015-06-24 01:30:00,0.0,1.88418,0.00048,397.249,0.034,0.7474,0.0057,140.000,45.000,34238.12012,1.89838,400.907,33.440,45.068,45.000,0.00,0.10,-272.72,-272.78,-7,989,-5,23.8,19.3,-1.0,23.6,20.0,-0.7,5.73,1.89,-0.2,27.9
2015-06-24 01:31:00,0.0,1.88443,0.00030,397.197,0.039,0.7490,0.0047,139.999,45.000,34237.99268,1.89862,400.858,33.441,45.068,45.000,0.00,0.10,-272.72,-272.78,-7,989,-5,23.8,19.4,-0.9,23.6,19.9,-0.8,5.73,1.89,-0.2,27.9
2015-06-24 01:32:00,0.0,1.88423,0.00040,397.247,0.044,0.7476,0.0025,139.997,45.000,34238.38520,1.89844,400.904,33.449,45.068,45.000,0.00,0.10,-272.72,-272.78,-7,989,-5,23.8,19.4,-0.9,23.6,19.9,-0.7,5.73,1.89,-0.2,27.9
2015-06-24 01:33:00,0.0,1.88447,0.00039,397.259,0.042,0.7418,0.0028,140.001,45.000,34238.61900,1.89853,400.887,33.487,45.068,45.000,0.00,0.10,-272.72,-272.77,-7,989,-5,23.9,19.2,-1.0,23.6,19.8,-0.8,5.73,1.91,-0.2,27.9
2015-06-24 01:34:00,0.0,1.88458,0.00055,397.205,0.071,0.7477,0.0023,139.999,45.000,34237.91449,1.89875,400.863,33.478,45.068,45.000,0.00,0.10,-272.72,-272.78,-7,989,-5,23.8,19.4,-0.9,23.6,19.9,-0.8,5.73,1.91,-0.2,27.9
2015-06-24 01:35:00,0.0,1.88438,0.00055,397.092,0.064,0.7617,0.0051,140.000,45.000,34236.71563,1.89887,400.816,33.488,45.068,45.000,0.00,0.10,-272.72,-272.78,-7,989,-5,23.8,19.8,-0.6,23.6,20.2,-0.5,5.73,1.93,-0.2,27.9
2015-06-24 01:36:00,0.0,1.88394,0.00028,397.022,0.075,0.7695,0.0051,140.003,45.000,34240.55715,1.89856,400.790,33.460,45.067,45.000,0.00,0.10,-272.71,-272.77,-7,989,-6,23.8,20.0,-0.5,23.6,20.5,-0.4,5.73,1.94,-0.2,27.9
2015-06-24 01:37:00,0.0,1.88389,0.00033,396.930,0.076,0.7864,0.0042,139.998,45.000,34238.96504,1.89885,400.775,33.469,45.068,45.000,0.00,0.10,-272.71,-272.78,-7,989,-5,23.9,20.4,-0.2,23.6,20.9,-0.1,5.73,1.95,-0.2,27.9
2015-06-24 01:38:00,0.0,1.88394,0.00049,397.112,0.054,0.7700,0.0091,140.005,45.000,34239.29601,1.89855,400.884,33.499,45.068,45.000,0.00,0.10,-272.72,-272.78,-7,989,-5,23.9,19.9,-0.5,23.6,20.6,-0.2,5.73,1.94,-0.2,27.9
2015-06-24 01:39:00,0.0,1.88427,0.00053,397.084,0.056,0.7745,0.0120,140.001,45.000,34237.33736,1.89900,400.868,33.501,45.068,45.000,0.00,0.10,-272.72,-272.78,-7,989,-5,23.8,20.2,-0.4,23.6,20.5,-0.3,5.73,1.93,-0.2,28.0
2015-06-24 01:40:00,0.0,1.88389,0.00052,397.103,0.076,0.7815,0.0052,139.997,45.000,34238.36555,1.89875,400.930,33.507,45.068,45.000,0.00,0.10,-272.71,-272.77,-7,989,-6,23.9,20.3,-0.3,23.6,20.9,-0.1,5.73,1.91,-0.2,28.0
2015-06-24 01:41:00,0.0,1.88394,0.00051,397.088,0.061,0.7682,0.0067,140.001,45.000,34239.26750,1.89854,400.848,33.528,45.068,45.000,0.00,0.10,-272.72,-272.79,-7,989,-6,23.9,20.0,-0.5,23.6,20.5,-0.3,5.73,1.90,-0.2,28.0
2015-06-24 01:42:00,0.0,1.88364,0.00042,397.054,0.070,0.7775,0.0058,140.002,45.000,34241.38559,1.89840,400.862,33.529,45.068,45.000,0.00,0.10,-272.72,-272.79,-7,989,-5,23.9,20.2,-0.4,23.6,20.8,-0.1,5.73,1.89,-0.2,27.9
2015-06-24 01:43:00,0.0,1.88362,0.00047,397.149,0.074,0.7768,0.0118,140.004,45.000,34243.17187,1.89842,400.946,33.557,45.068,45.000,0.00,0.10,-272.71,-272.78,-7,989,-6,23.9,20.1,-0.4,23.6,20.7,-0.2,5.73,1.89,-0.2,27.9
2015-06-24 01:44:00,0.0,1.88417,0.00032,397.272,0.043,0.7460,0.0027,139.997,45.000,34241.91536,1.89826,400.923,33.563,45.068,45.000,0.00,0.10,-272.72,-272.78,-7,989,-6,23.9,19.4,-0.9,23.6,20.0,-0.7,5.73,1.89,-0.2,28.0
2015-06-24 01:45:00,0.0,1.88369,0.00057,397.175,0.023,0.7608,0.0041,139.997,45.000,34241.66165,1.89815,400.895,33.563,45.068,45.000,0.00,0.10,-272.73,-272.78,-7,989,-5,23.9,19.8,-0.6,23.6,20.2,-0.6,5.73,1.91,-0.2,27.9
2015-06-24 01:46:00,0.0,1.88362,0.00058,397.185,0.042,0.7574,0.0050,140.006,45.000,34245.86892,1.89803,400.892,33.563,45.068,45.000,0.00,0.10,-272.72,-272.78,-7,989,-6,23.9,19.7,-0.7,23.6,20.2,-0.5,5.73,1.92,-0.2,27.9